Powrót do katalogu

CZ-6A DEB

AktywnyPO
NORAD 61485·DEBRIS·🇨🇳 China

Wystrzelony Aug 6, 2024 z Taiyuan Satellite Launch Center

Loading…

Następne Przeloty (najbliższe 24 godziny)

TLE

ŚwieżeSource: Space-Track

Epoka: Sep 13, 2026, 09:52 UTC

1 61485U 24140AAT 26256.41163599  .00000330  00000-0  20579-3 0  9996
2 61485  88.7746 248.6325 0147799 347.1271  12.6148 13.97365955102545

Śledź CZ-6A DEB w czasie rzeczywistym z AllMySat

Download on the App Store